Location: *
(43.4667°N, 11.6833°E)
Time: 04:27:57
(UTC+00:00)

ERS-2 - Pass Details

Date: 19 July 2019
Orbit: 494 x 501 km, 98.5° (Epoch: 21 August)

Event Time Altitude Azimuth Distance (km) Brightness Sun altitude
Exits shadow 22:07:41 16° 64° (ENE) 1,360 4.4 -23.7°
Drops below altitude 10° 22:10:00 10° 25° (NNE) 1,717 5.4 -23.8°
Sets 22:12:40 0° 4° (N) 2,606 6.9 -24.0°
